Location: *
(26.3740°N, 146.7320°E)
Time: 18:47:02
(UTC+00:00)

Daily predictions for brighter satellites

Satellite Brightness Start Highest point End
(mag) Time Altitude Azimuth Time Altitude Azimuth Time Altitude Azimuth
USA 215 4.0 12:26:51 44° W 12:26:51 44° W 12:31:52 10° NW
ATLAS 5 CENTAUR R/B 3.9 12:37:23 10° N 12:41:00 30° NNE 12:41:00 30° NNE
CZ-3C R/B 4.1 15:03:43 73° S 15:03:43 73° S 16:40:41 10° ESE
Cosmos 1980 Rocket 4.4 15:18:36 21° N 15:18:36 21° N 15:20:23 10° NNE
SL-16 R/B 3.8 15:55:07 30° NNE 15:55:07 30° NNE 15:57:55 10° NNE
SL-16 R/B 4.0 15:52:01 29° E 15:52:37 29° ENE 15:57:52 10° NNE
Cosmos 2322 Rocket 3.6 16:05:57 34° NNE 16:05:57 34° NNE 16:09:03 10° NNE
Cosmos 2181 Rocket 4.4 16:24:06 10° N 16:29:20 62° N 16:29:20 62° N
ADEOS 4.4 16:36:22 10° NNE 16:40:04 47° NNE 16:40:04 47° NNE
ATLAS 2AS CENTAUR R/B 3.1 16:46:05 55° SE 16:47:10 60° ESE 16:54:58 10° NE
CZ-4C R/B 2.8 16:41:42 10° NNW 16:49:20 83° WSW 16:50:55 62° SSE
Milstar 3 3.2 16:51:09 57° SSE 16:51:09 57° SSE 16:59:59 10° ESE
COSMOS 2428 3.8 16:50:03 34° ESE 16:50:42 35° ESE 16:55:51 10° NE
Okean O Rocket 4.4 16:55:47 10° ENE 16:57:16 11° E 16:58:44 10° ESE
Cosmos 2360 Rocket 2.4 16:58:17 65° NNW 16:58:17 65° NNW 17:03:12 10° NNE
Cosmos 2074 Rocket 4.0 17:00:04 65° WNW 17:00:04 65° WNW 17:05:53 10° N
Cosmos 1302 Rocket 4.3 17:01:06 61° N 17:01:06 61° N 17:05:29 10° NNE
NOSS 2-3 (E) 4.5 17:01:40 49° N 17:01:40 49° N 17:05:26 10° NNE
Resurs 1-4 Rocket 3.2 16:57:07 10° N 17:00:33 34° NW 17:00:33 34° NW
Cosmos 2263 Rocket 2.7 16:56:38 10° N 17:02:15 58° ENE 17:04:40 33° SE
Cosmos 2219 Rocket 3.9 17:01:49 20° SE 17:03:58 25° ESE 17:08:30 10° NE
Iridium 4 Rocket 3.7 17:05:23 86° WSW 17:05:25 86° W 17:11:18 10° N
ADEOS II 3.8 17:02:15 10° NE 17:06:40 27° E 17:09:02 20° SE
Cosmos 2333 Rocket 4.1 17:07:31 15° SE 17:10:28 23° ESE 17:14:47 10° NE
CZ-2D R/B 3.3 17:07:59 10° N 17:11:47 31° NW 17:11:47 31° NW
Cosmos 2322 3.7 17:14:34 64° WNW 17:14:34 64° WNW 17:20:02 10° NNE
Cosmos 2154 Rocket 4.0 17:14:08 52° S 17:15:46 80° E 17:22:05 10° N
MOS 1 Rocket 4.4 17:11:32 10° N 17:14:16 32° NNW 17:14:16 32° NNW
Cosmos 1610 Rocket 4.3 17:22:01 62° WSW 17:22:38 66° W 17:28:43 10° N
Cosmos 1378 3.9 17:25:12 10° N 17:28:48 47° E 17:29:00 47° E
Cosmos 2341 Rocket 4.1 17:27:40 32° S 17:30:48 75° E 17:37:11 10° N
MOZ.5/SAFIR/RUBIN 5/SL-8 3.7 17:31:13 69° WNW 17:31:13 69° WNW 17:35:36 10° NNW
ARIANE 5 R/B 4.1 17:31:08 10° NNW 17:34:08 21° WNW 17:34:08 21° WNW
SL-16 R/B 3.4 17:37:06 30° W 17:37:06 30° W 17:41:31 10° NW
Aureole 2 Rocket 3.9 17:35:01 34° SE 17:36:04 42° ESE 17:40:01 10° NNE
Cosmos 1184 Rocket 4.1 17:33:10 10° N 17:36:17 38° E 17:36:44 36° ESE
SL-16 R/B 4.4 17:36:59 11° WNW 17:36:59 11° WNW 17:37:57 10° NW
Cosmos 972 Rocket 3.8 17:40:21 58° WSW 17:40:57 64° WNW 17:45:47 10° N
Cosmos 1992 Rocket 4.0 17:40:30 41° S 17:42:17 77° ESE 17:47:30 10° NNE
Cosmos 1271 Rocket 3.0 17:42:52 56° NW 17:42:52 56° NW 17:46:27 10° N
Cosmos 2333 4.1 17:41:29 46° SSW 17:43:14 79° WNW 17:48:57 10° NNE
ATLAS 2AS CENTAUR RB 4.4 17:40:26 17° S 17:44:11 23° SE 18:02:56 10° E
ATLAS 2A CENTAUR R/B 1.3 17:48:59 86° ENE 17:48:59 86° ENE 17:51:09 10° E
Geosat 4.1 17:46:47 10° NNE 17:51:48 72° ESE 17:54:17 30° S
Meteor 1-22 Rocket 4.1 17:51:07 33° SSW 17:53:43 78° W 17:59:29 10° N
NOSS 0 Rocket 4.5 17:51:45 17° S 17:56:22 55° ESE 18:02:23 10° NNE
Cosmos 2218 Rocket 4.5 17:51:32 10° S 17:57:36 60° E 18:03:47 10° NNE
PSLV R/B 3.7 17:57:02 10° N 18:00:56 75° WNW 18:02:12 42° SSW
Kakehashi 4.5 17:59:03 24° SSW 18:01:50 38° SSE 18:07:55 10° E
Cosmos 44 Rocket 3.2 17:59:32 10° NNW 18:04:18 85° ENE 18:09:06 10° SSE
BREEZE-M DEB (TANK) 4.1 17:56:35 10° NW 18:06:31 61° NE 18:09:49 10° ESE
PSLV R/B 3.5 18:02:39 10° NNE 18:07:03 89° ESE 18:09:47 23° SSW
Abrixas rocket 3.9 18:06:53 21° SSE 18:07:59 25° SE 18:10:46 10° ENE
SWIFT 3.1 18:08:17 33° SSW 18:08:50 34° S 18:12:44 10° ESE
Cosmos 1486 Rocket 4.1 18:04:53 10° NNW 18:10:01 53° WSW 18:15:06 10° S
SEDSat Delta rocket 2.9 18:11:55 32° W 18:13:47 77° NNW 18:18:17 10° ENE
Centaur D-1AR AC-40 2.5 18:12:06 27° WSW 18:13:47 35° SSW 18:17:07 10° SE
BREEZE-M DEB 3.8 18:18:17 26° W 18:19:46 37° SW 18:27:19 10° SSE
Cosmos 1354 Rocket 4.0 18:14:55 10° NNW 18:20:14 87° ENE 18:25:33 10° SSE
Cosmos 1766 4.2 18:20:06 27° WSW 18:20:49 29° W 18:24:16 10° NNW
Cosmos 1356 Rocket 3.8 18:28:05 10° N 18:32:05 63° E 18:36:01 10° SSE
Okean O Rocket 2.1 18:29:30 10° N 18:33:41 41° WNW 18:36:56 16° SW
Atlas Centaur 2 3.1 18:30:43 14° SSW 18:33:57 30° SSE 18:38:49 10° E
Intelsat 5-1 Rocket 3.6 18:30:18 16° W 18:34:45 75° S 18:50:54 10° E
COSMOS 2428 4.1 18:32:06 16° WSW 18:34:56 23° WNW 18:39:23 10° NNW
Cosmos 1812 Rocket 4.5 18:33:16 19° SW 18:35:30 29° W 18:39:20 10° NNW
SeaSat 1 2.4 18:31:34 10° SSE 18:36:27 66° WSW 18:41:21 10° NNW
CZ-4B R/B 4.3 18:33:59 10° NNE 18:38:23 72° ESE 18:42:33 10° S
Lacrosse 5 3.1 18:33:53 10° S 18:38:32 37° ESE 18:43:11 10° NE
ATLAS 2AS CENTAUR R/B 4.3 18:33:32 13° W 18:38:36 25° NW 18:44:58 10° N
Cosmos 389 Rocket 4.4 18:39:58 13° W 18:40:27 14° WNW 18:42:19 10° NW
Tiangong 1 3.1 18:39:03 10° S 18:40:59 17° SE 18:42:56 10° E
Okean 3 Rocket 4.3 18:36:44 10° N 18:41:05 58° E 18:45:28 10° SSE
USA 161 3.8 18:42:12 12° W 18:42:12 12° W 18:42:58 10° WNW
Cosmos-2242 4.3 18:37:45 10° SSE 18:41:44 41° E 18:45:44 10° NNE
Cosmos 1980 3.8 18:38:29 11° SSW 18:43:52 61° WNW 18:49:28 10° N
Delta 142 3.3 18:40:56 10° W 18:44:57 70° SSW 18:49:26 10° ESE
Cosmos 2263 Rocket 3.9 18:43:19 10° WNW 18:45:34 12° W 18:46:10 12° WSW
NOSS 3-4 (A) 3.6 18:39:33 10° SSW 18:45:50 81° ESE 18:52:13 10° NNE
NOSS 3-4 (C) 3.6 18:39:38 10° SSW 18:45:55 79° ESE 18:52:17 10° NNE
ADEOS II 3.3 18:41:58 10° NNW 18:46:11 25° WNW 18:49:58 12° WSW
CZ-2C R/B 4.1 18:41:44 10° SSE 18:46:18 69° ENE 18:50:47 10° N
Cosmos 2237 Rocket 2.3 18:40:58 10° SSW 18:46:32 63° WNW 18:52:06 10° N
Cosmos 2219 Rocket 3.1 18:43:34 14° WSW 18:47:40 31° WNW 18:52:39 10° N
ERBS 2.3 18:44:52 13° SW 18:47:52 86° WNW 18:51:19 10° NE
ISS -0.7 18:45:56 10° N 18:48:14 18° NE 18:50:31 10° E
Cosmos 1340 Rocket 4.1 18:48:55 10° NW 18:51:55 21° W 18:54:53 10° SW
Cosmos 2333 Rocket 3.0 18:49:34 11° SW 18:54:25 34° WNW 18:59:34 10° N
In-Cosmos 22 4.5 18:50:41 10° NNW 18:55:39 42° W 19:00:35 10° SSW
CZ-4B R/B 3.9 18:51:22 10° N 18:56:30 37° WNW 19:01:35 10° SW
Cosmos 1733 3.2 18:53:10 10° SSW 18:56:59 63° W 19:00:50 10° N
Cosmos 1758 4.5 18:58:11 10° SW 19:01:28 25° W 19:04:46 10° NNW
Cosmos 968 Rocket 3.9 18:56:45 10° N 19:01:53 68° ENE 19:06:57 10° SSE
MTI 3.7 18:59:27 10° S 19:02:41 84° WSW 19:05:57 10° NNW
Feng Yun 1-1 Rocket 4.4 18:57:21 10° NNE 19:03:17 89° W 19:09:04 10° SSW
H-2A R/B 1.6 18:55:15 10° WNW 19:03:39 56° SSW 19:06:08 10° SE
Cosmos 1766 Rocket 4.5 19:03:26 10° N 19:07:50 55° E 19:12:11 10° SSE
Cosmos 1844 Rocket 2.9 19:02:28 10° NNW 19:07:55 51° WSW 19:13:22 10° S
USA 116 4.2 19:06:50 10° SSE 19:11:14 89° ENE 19:16:13 10° NNW
